Year,Month,Day,Hour,Minute,Value (Times are PST for temperature in C)
2015,06,20,00,00,12.50
2015,06,20,00,01,12.50
2015,06,20,00,02,12.40
2015,06,20,00,03,12.40
2015,06,20,00,04,12.40
2015,06,20,00,05,12.40
2015,06,20,00,06,12.40
2015,06,20,00,07,12.40
2015,06,20,00,08,12.40
2015,06,20,00,09,12.40
2015,06,20,00,10,12.40
2015,06,20,00,11,12.40
2015,06,20,00,12,12.40
2015,06,20,00,13,12.40
2015,06,20,00,14,12.40
2015,06,20,00,15,12.40
2015,06,20,00,16,12.40
2015,06,20,00,17,12.40
2015,06,20,00,18,12.40
2015,06,20,00,19,12.40
2015,06,20,00,20,12.40
2015,06,20,00,21,12.40
2015,06,20,00,22,12.40
2015,06,20,00,23,12.40
2015,06,20,00,24,12.40
2015,06,20,00,25,12.40
2015,06,20,00,26,12.40
2015,06,20,00,27,12.40
2015,06,20,00,28,12.40
2015,06,20,00,29,12.40
2015,06,20,00,30,12.40
2015,06,20,00,31,12.40
2015,06,20,00,32,12.40
2015,06,20,00,33,12.40
2015,06,20,00,34,12.40
2015,06,20,00,35,12.40
2015,06,20,00,36,12.40
2015,06,20,00,37,12.40
2015,06,20,00,38,12.40
2015,06,20,00,39,12.40
2015,06,20,00,40,12.40
2015,06,20,00,41,12.40
2015,06,20,00,42,12.40
2015,06,20,00,43,12.40
2015,06,20,00,44,12.40
2015,06,20,00,45,12.40
2015,06,20,00,46,12.40
2015,06,20,00,47,12.40
2015,06,20,00,48,12.40
2015,06,20,00,49,12.40
2015,06,20,00,50,12.40
2015,06,20,00,51,12.50
2015,06,20,00,52,12.50
2015,06,20,00,53,12.40
2015,06,20,00,54,12.40
2015,06,20,00,55,12.50
2015,06,20,00,56,12.40
2015,06,20,00,57,12.40
2015,06,20,00,58,12.40
2015,06,20,00,59,12.40
2015,06,20,01,00,12.40
2015,06,20,01,01,12.40
2015,06,20,01,02,12.40
2015,06,20,01,03,12.40
2015,06,20,01,04,12.40
2015,06,20,01,05,12.40
2015,06,20,01,06,12.30
2015,06,20,01,07,12.30
2015,06,20,01,08,12.30
2015,06,20,01,09,12.30
2015,06,20,01,10,12.30
2015,06,20,01,11,12.30
2015,06,20,01,12,12.30
2015,06,20,01,13,12.30
2015,06,20,01,14,12.30
2015,06,20,01,15,12.30
2015,06,20,01,16,12.30
2015,06,20,01,17,12.20
2015,06,20,01,18,12.20
2015,06,20,01,19,12.20
2015,06,20,01,20,12.20
2015,06,20,01,21,12.20
2015,06,20,01,22,12.20
2015,06,20,01,23,12.20
2015,06,20,01,24,12.20
2015,06,20,01,25,12.20
2015,06,20,01,26,12.10
2015,06,20,01,27,12.10
2015,06,20,01,28,12.10
2015,06,20,01,29,12.10
2015,06,20,01,30,12.10
2015,06,20,01,31,12.10
2015,06,20,01,32,12.10
2015,06,20,01,33,12.10
2015,06,20,01,34,12.10
2015,06,20,01,35,12.10
2015,06,20,01,36,12.10
2015,06,20,01,37,12.10
2015,06,20,01,38,12.00
2015,06,20,01,39,12.00
2015,06,20,01,40,12.00
2015,06,20,01,41,12.00
2015,06,20,01,42,12.00
2015,06,20,01,43,12.00
2015,06,20,01,44,12.00
2015,06,20,01,45,12.00
2015,06,20,01,46,11.90
2015,06,20,01,47,11.90
2015,06,20,01,48,11.90
2015,06,20,01,49,11.90
2015,06,20,01,50,11.90
2015,06,20,01,51,11.90
2015,06,20,01,52,11.90
2015,06,20,01,53,11.90
2015,06,20,01,54,11.90
2015,06,20,01,55,11.90
2015,06,20,01,56,11.90
2015,06,20,01,57,11.90
2015,06,20,01,58,11.90
2015,06,20,01,59,12.00
2015,06,20,02,00,12.00
2015,06,20,02,01,12.00
2015,06,20,02,02,12.00
2015,06,20,02,03,12.00
2015,06,20,02,04,12.00
2015,06,20,02,05,12.00
2015,06,20,02,06,12.00
2015,06,20,02,07,12.00
2015,06,20,02,08,12.00
2015,06,20,02,09,12.00
2015,06,20,02,10,12.00
2015,06,20,02,11,12.00
2015,06,20,02,12,12.10
2015,06,20,02,13,12.10
2015,06,20,02,14,12.10
2015,06,20,02,15,12.10
2015,06,20,02,16,12.10
2015,06,20,02,17,12.10
2015,06,20,02,18,12.10
2015,06,20,02,19,12.10
2015,06,20,02,20,12.10
2015,06,20,02,21,12.10
2015,06,20,02,22,12.10
2015,06,20,02,23,12.10
2015,06,20,02,24,12.10
2015,06,20,02,25,12.10
2015,06,20,02,26,12.10
2015,06,20,02,27,12.10
2015,06,20,02,28,12.10
2015,06,20,02,29,12.10
2015,06,20,02,30,12.10
2015,06,20,02,31,12.10
2015,06,20,02,32,12.10
2015,06,20,02,33,12.10
2015,06,20,02,34,12.10
2015,06,20,02,35,12.10
2015,06,20,02,36,12.10
2015,06,20,02,37,12.10
2015,06,20,02,38,12.10
2015,06,20,02,39,12.10
2015,06,20,02,40,12.10
2015,06,20,02,41,12.10
2015,06,20,02,42,12.00
2015,06,20,02,43,12.10
2015,06,20,02,44,12.10
2015,06,20,02,45,12.00
2015,06,20,02,46,12.00
2015,06,20,02,47,12.00
2015,06,20,02,48,12.00
2015,06,20,02,49,12.00
2015,06,20,02,50,12.00
2015,06,20,02,51,12.00
2015,06,20,02,52,12.00
2015,06,20,02,53,11.90
2015,06,20,02,54,11.90
2015,06,20,02,55,11.90
2015,06,20,02,56,11.90
2015,06,20,02,57,11.90
2015,06,20,02,58,11.90
2015,06,20,02,59,11.90
2015,06,20,03,00,11.90
2015,06,20,03,01,11.90
2015,06,20,03,02,11.90
2015,06,20,03,03,11.90
2015,06,20,03,04,11.90
2015,06,20,03,05,11.80
2015,06,20,03,06,11.80
2015,06,20,03,07,11.80
2015,06,20,03,08,11.80
2015,06,20,03,09,11.80
2015,06,20,03,10,11.80
2015,06,20,03,11,11.70
2015,06,20,03,12,11.70
2015,06,20,03,13,11.70
2015,06,20,03,14,11.70
2015,06,20,03,15,11.70
2015,06,20,03,16,11.70
2015,06,20,03,17,11.70
2015,06,20,03,18,11.60
2015,06,20,03,19,11.60
2015,06,20,03,20,11.60
2015,06,20,03,21,11.60
2015,06,20,03,22,11.60
2015,06,20,03,23,11.60
2015,06,20,03,24,11.60
2015,06,20,03,25,11.60
2015,06,20,03,26,11.60
2015,06,20,03,27,11.50
2015,06,20,03,28,11.50
2015,06,20,03,29,11.50
2015,06,20,03,30,11.40
2015,06,20,03,31,11.40
2015,06,20,03,32,11.40
2015,06,20,03,33,11.40
2015,06,20,03,34,11.30
2015,06,20,03,35,11.30
2015,06,20,03,36,11.30
2015,06,20,03,37,11.30
2015,06,20,03,38,11.30
2015,06,20,03,39,11.20
2015,06,20,03,40,11.20
2015,06,20,03,41,11.20
2015,06,20,03,42,11.20
2015,06,20,03,43,11.10
2015,06,20,03,44,11.10
2015,06,20,03,45,11.10
2015,06,20,03,46,11.10
2015,06,20,03,47,11.10
2015,06,20,03,48,11.10
2015,06,20,03,49,11.10
2015,06,20,03,50,11.10
2015,06,20,03,51,11.10
2015,06,20,03,52,11.10
2015,06,20,03,53,11.00
2015,06,20,03,54,11.00
2015,06,20,03,55,10.90
2015,06,20,03,56,10.90
2015,06,20,03,57,10.90
2015,06,20,03,58,10.90
2015,06,20,03,59,10.80
2015,06,20,04,00,10.80
2015,06,20,04,01,10.80
2015,06,20,04,02,10.80
2015,06,20,04,03,10.80
2015,06,20,04,04,10.80
2015,06,20,04,05,10.80
2015,06,20,04,06,10.90
2015,06,20,04,07,10.90
2015,06,20,04,08,10.90
2015,06,20,04,09,10.90
2015,06,20,04,10,10.90
2015,06,20,04,11,10.90
2015,06,20,04,12,10.90
2015,06,20,04,13,10.90
2015,06,20,04,14,10.90
2015,06,20,04,15,10.80
2015,06,20,04,16,10.80
2015,06,20,04,17,10.80
2015,06,20,04,18,10.80
2015,06,20,04,19,10.80
2015,06,20,04,20,10.70
2015,06,20,04,21,10.70
2015,06,20,04,22,10.70
2015,06,20,04,23,10.70
2015,06,20,04,24,10.70
2015,06,20,04,25,10.60
2015,06,20,04,26,10.60
2015,06,20,04,27,10.60
2015,06,20,04,28,10.60
2015,06,20,04,29,10.60
2015,06,20,04,30,10.60
2015,06,20,04,31,10.60
2015,06,20,04,32,10.60
2015,06,20,04,33,10.60
2015,06,20,04,34,10.60
2015,06,20,04,35,10.60
2015,06,20,04,36,10.60
2015,06,20,04,37,10.60
2015,06,20,04,38,10.60
2015,06,20,04,39,10.60
2015,06,20,04,40,10.50
2015,06,20,04,41,10.50
2015,06,20,04,42,10.50
2015,06,20,04,43,10.50
2015,06,20,04,44,10.50
2015,06,20,04,45,10.50
2015,06,20,04,46,10.50
2015,06,20,04,47,10.50
2015,06,20,04,48,10.50
2015,06,20,04,49,10.50
2015,06,20,04,50,10.50
2015,06,20,04,51,10.50
2015,06,20,04,52,10.50
2015,06,20,04,53,10.50
2015,06,20,04,54,10.50
2015,06,20,04,55,10.50
2015,06,20,04,56,10.50
2015,06,20,04,57,10.50
2015,06,20,04,58,10.40
2015,06,20,04,59,10.40
2015,06,20,05,00,10.40
2015,06,20,05,01,10.40
2015,06,20,05,02,10.40
2015,06,20,05,03,10.40
2015,06,20,05,04,10.30
2015,06,20,05,05,10.30
2015,06,20,05,06,10.30
2015,06,20,05,07,10.30
2015,06,20,05,08,10.30
2015,06,20,05,09,10.30
2015,06,20,05,10,10.30
2015,06,20,05,11,10.30
2015,06,20,05,12,10.30
2015,06,20,05,13,10.30
2015,06,20,05,14,10.30
2015,06,20,05,15,10.30
2015,06,20,05,16,10.30
2015,06,20,05,17,10.30
2015,06,20,05,18,10.30
2015,06,20,05,19,10.20
2015,06,20,05,20,10.20
2015,06,20,05,21,10.20
2015,06,20,05,22,10.20
2015,06,20,05,23,10.20
2015,06,20,05,24,10.20
2015,06,20,05,25,10.20
2015,06,20,05,26,10.20
2015,06,20,05,27,10.20
2015,06,20,05,28,10.20
2015,06,20,05,29,10.20
2015,06,20,05,30,10.20
2015,06,20,05,31,10.20
2015,06,20,05,32,10.20
2015,06,20,05,33,10.20
2015,06,20,05,34,10.20
2015,06,20,05,35,10.20
2015,06,20,05,36,10.20
2015,06,20,05,37,10.20
2015,06,20,05,38,10.20
2015,06,20,05,39,10.20
2015,06,20,05,40,10.20
2015,06,20,05,41,10.20
2015,06,20,05,42,10.20
2015,06,20,05,43,10.20
2015,06,20,05,44,10.20
2015,06,20,05,45,10.20
2015,06,20,05,46,10.20
2015,06,20,05,47,10.20
2015,06,20,05,48,10.20
2015,06,20,05,49,10.20
2015,06,20,05,50,10.20
2015,06,20,05,51,10.20
2015,06,20,05,52,10.20
2015,06,20,05,53,10.20
2015,06,20,05,54,10.20
2015,06,20,05,55,10.20
2015,06,20,05,56,10.20
2015,06,20,05,57,10.20
2015,06,20,05,58,10.20
2015,06,20,05,59,10.20
2015,06,20,06,00,10.20
2015,06,20,06,01,10.20
2015,06,20,06,02,10.20
2015,06,20,06,03,10.20
2015,06,20,06,04,10.20
2015,06,20,06,05,10.20
2015,06,20,06,06,10.20
2015,06,20,06,07,10.20
2015,06,20,06,08,10.20
2015,06,20,06,09,10.30
2015,06,20,06,10,10.30
2015,06,20,06,11,10.30
2015,06,20,06,12,10.30
2015,06,20,06,13,10.40
2015,06,20,06,14,10.40
2015,06,20,06,15,10.40
2015,06,20,06,16,10.40
2015,06,20,06,17,10.40
2015,06,20,06,18,10.40
2015,06,20,06,19,10.40
2015,06,20,06,20,10.40
2015,06,20,06,21,10.40
2015,06,20,06,22,10.50
2015,06,20,06,23,10.50
2015,06,20,06,24,10.50
2015,06,20,06,25,10.50
2015,06,20,06,26,10.60
2015,06,20,06,27,10.60
2015,06,20,06,28,10.60
2015,06,20,06,29,10.60
2015,06,20,06,30,10.60
2015,06,20,06,31,10.70
2015,06,20,06,32,10.70
2015,06,20,06,33,10.70
2015,06,20,06,34,10.80
2015,06,20,06,35,10.80
2015,06,20,06,36,10.80
2015,06,20,06,37,10.80
2015,06,20,06,38,10.80
2015,06,20,06,39,10.90
2015,06,20,06,40,10.90
2015,06,20,06,41,10.90
2015,06,20,06,42,10.90
2015,06,20,06,43,11.00
2015,06,20,06,44,11.00
2015,06,20,06,45,11.00
2015,06,20,06,46,11.10
2015,06,20,06,47,11.10
2015,06,20,06,48,11.10
2015,06,20,06,49,11.10
2015,06,20,06,50,11.10
2015,06,20,06,51,11.10
2015,06,20,06,52,11.10
2015,06,20,06,53,11.10
2015,06,20,06,54,11.10
2015,06,20,06,55,11.10
2015,06,20,06,56,11.10
2015,06,20,06,57,11.10
2015,06,20,06,58,11.10
2015,06,20,06,59,11.10
2015,06,20,07,00,11.10
2015,06,20,07,01,11.10
2015,06,20,07,02,11.10
2015,06,20,07,03,11.10
2015,06,20,07,04,11.10
2015,06,20,07,05,11.10
2015,06,20,07,06,11.10
2015,06,20,07,07,11.10
2015,06,20,07,08,11.10
2015,06,20,07,09,11.10
2015,06,20,07,10,11.00
2015,06,20,07,11,11.00
2015,06,20,07,12,11.00
2015,06,20,07,13,11.00
2015,06,20,07,14,11.00
2015,06,20,07,15,11.00
2015,06,20,07,16,11.00
2015,06,20,07,17,11.10
2015,06,20,07,18,11.10
2015,06,20,07,19,11.10
2015,06,20,07,20,11.20
2015,06,20,07,21,11.20
2015,06,20,07,22,11.20
2015,06,20,07,23,11.20
2015,06,20,07,24,11.30
2015,06,20,07,25,11.30
2015,06,20,07,26,11.40
2015,06,20,07,27,11.40
2015,06,20,07,28,11.40
2015,06,20,07,29,11.50
2015,06,20,07,30,11.50
2015,06,20,07,31,11.50
2015,06,20,07,32,11.50
2015,06,20,07,33,11.60
2015,06,20,07,34,11.60
2015,06,20,07,35,11.60
2015,06,20,07,36,11.60
2015,06,20,07,37,11.70
2015,06,20,07,38,11.70
2015,06,20,07,39,11.70
2015,06,20,07,40,11.70
2015,06,20,07,41,11.80
2015,06,20,07,42,11.80
2015,06,20,07,43,11.80
2015,06,20,07,44,11.90
2015,06,20,07,45,11.90
2015,06,20,07,46,11.90
2015,06,20,07,47,12.00
2015,06,20,07,48,12.00
2015,06,20,07,49,12.00
2015,06,20,07,50,12.10
2015,06,20,07,51,12.10
2015,06,20,07,52,12.20
2015,06,20,07,53,12.20
2015,06,20,07,54,12.30
2015,06,20,07,55,12.30
2015,06,20,07,56,12.30
2015,06,20,07,57,12.40
2015,06,20,07,58,12.40
2015,06,20,07,59,12.50
2015,06,20,08,00,12.60
2015,06,20,08,01,12.60
2015,06,20,08,02,12.70
2015,06,20,08,03,12.80
2015,06,20,08,04,12.80
2015,06,20,08,05,12.90
2015,06,20,08,06,13.00
2015,06,20,08,07,13.10
2015,06,20,08,08,13.10
2015,06,20,08,09,13.20
2015,06,20,08,10,13.30
2015,06,20,08,11,13.30
2015,06,20,08,12,13.40
2015,06,20,08,13,13.40
2015,06,20,08,14,13.40
2015,06,20,08,15,13.50
2015,06,20,08,16,13.50
2015,06,20,08,17,13.60
2015,06,20,08,18,13.60
2015,06,20,08,19,13.70
2015,06,20,08,20,13.70
2015,06,20,08,21,13.70
2015,06,20,08,22,13.80
2015,06,20,08,23,13.90
2015,06,20,08,24,14.00
2015,06,20,08,25,14.00
2015,06,20,08,26,14.10
2015,06,20,08,27,14.20
2015,06,20,08,28,14.20
2015,06,20,08,29,14.30
2015,06,20,08,30,14.40
2015,06,20,08,31,14.50
2015,06,20,08,32,14.60
2015,06,20,08,33,14.60
2015,06,20,08,34,14.70
2015,06,20,08,35,14.70
2015,06,20,08,36,14.80
2015,06,20,08,37,14.80
2015,06,20,08,38,14.90
2015,06,20,08,39,15.00
2015,06,20,08,40,15.10
2015,06,20,08,41,15.20
2015,06,20,08,42,15.20
2015,06,20,08,43,15.20
2015,06,20,08,44,15.20
2015,06,20,08,45,15.20
2015,06,20,08,46,15.20
2015,06,20,08,47,15.20
2015,06,20,08,48,15.20
2015,06,20,08,49,15.10
2015,06,20,08,50,15.10
2015,06,20,08,51,15.00
2015,06,20,08,52,14.80
2015,06,20,08,53,14.70
2015,06,20,08,54,14.60
2015,06,20,08,55,14.60
2015,06,20,08,56,14.50
2015,06,20,08,57,14.50
2015,06,20,08,58,14.40
2015,06,20,08,59,14.40
2015,06,20,09,00,14.30
2015,06,20,09,01,14.30
2015,06,20,09,02,14.30
2015,06,20,09,03,14.30
2015,06,20,09,04,14.40
2015,06,20,09,05,14.40
2015,06,20,09,06,14.50
2015,06,20,09,07,14.50
2015,06,20,09,08,14.50
2015,06,20,09,09,14.40
2015,06,20,09,10,14.40
2015,06,20,09,11,14.50
2015,06,20,09,12,14.50
2015,06,20,09,13,14.60
2015,06,20,09,14,14.60
2015,06,20,09,15,14.60
2015,06,20,09,16,14.60
2015,06,20,09,17,14.60
2015,06,20,09,18,14.70
2015,06,20,09,19,14.70
2015,06,20,09,20,14.70
2015,06,20,09,21,14.70
2015,06,20,09,22,14.60
2015,06,20,09,23,14.60
2015,06,20,09,24,14.60
2015,06,20,09,25,14.60
2015,06,20,09,26,14.60
2015,06,20,09,27,14.60
2015,06,20,09,28,14.70
2015,06,20,09,29,14.60
2015,06,20,09,30,14.60
2015,06,20,09,31,14.60
2015,06,20,09,32,14.60
2015,06,20,09,33,14.60
2015,06,20,09,34,14.60
2015,06,20,09,35,14.70
2015,06,20,09,36,14.80
2015,06,20,09,37,14.80
2015,06,20,09,38,14.80
2015,06,20,09,39,14.70
2015,06,20,09,40,14.70
2015,06,20,09,41,14.70
2015,06,20,09,42,14.70
2015,06,20,09,43,14.70
2015,06,20,09,44,14.70
2015,06,20,09,45,14.70
2015,06,20,09,46,14.70
2015,06,20,09,47,14.80
2015,06,20,09,48,14.80
2015,06,20,09,49,14.90
2015,06,20,09,50,14.90
2015,06,20,09,51,14.90
2015,06,20,09,52,14.90
2015,06,20,09,53,14.80
2015,06,20,09,54,14.80
2015,06,20,09,55,14.80
2015,06,20,09,56,14.80
2015,06,20,09,57,14.80
2015,06,20,09,58,14.80
2015,06,20,09,59,14.80
2015,06,20,10,00,14.80
2015,06,20,10,01,14.80
2015,06,20,10,02,14.80
2015,06,20,10,03,14.80
2015,06,20,10,04,14.90
2015,06,20,10,05,15.00
2015,06,20,10,06,15.10
2015,06,20,10,07,15.20
2015,06,20,10,08,15.30
2015,06,20,10,09,15.40
2015,06,20,10,10,15.40
2015,06,20,10,11,15.40
2015,06,20,10,12,15.40
2015,06,20,10,13,15.40
2015,06,20,10,14,15.40
2015,06,20,10,15,15.30
2015,06,20,10,16,15.30
2015,06,20,10,17,15.30
2015,06,20,10,18,15.30
2015,06,20,10,19,15.30
2015,06,20,10,20,15.30
2015,06,20,10,21,15.30
2015,06,20,10,22,15.30
2015,06,20,10,23,15.30
2015,06,20,10,24,15.30
2015,06,20,10,25,15.30
2015,06,20,10,26,15.40
2015,06,20,10,27,15.40
2015,06,20,10,28,15.40
2015,06,20,10,29,15.40
2015,06,20,10,30,15.40
2015,06,20,10,31,15.40
2015,06,20,10,32,15.50
2015,06,20,10,33,15.60
2015,06,20,10,34,15.70
2015,06,20,10,35,15.80
2015,06,20,10,36,15.90
2015,06,20,10,37,15.80
2015,06,20,10,38,15.90
2015,06,20,10,39,15.80
2015,06,20,10,40,15.80
2015,06,20,10,41,15.80
2015,06,20,10,42,15.80
2015,06,20,10,43,15.70
2015,06,20,10,44,15.70
2015,06,20,10,45,15.70
2015,06,20,10,46,15.60
2015,06,20,10,47,15.60
2015,06,20,10,48,15.50
2015,06,20,10,49,15.40
2015,06,20,10,50,15.30
2015,06,20,10,51,15.20
2015,06,20,10,52,15.20
2015,06,20,10,53,15.10
2015,06,20,10,54,15.10
2015,06,20,10,55,15.20
2015,06,20,10,56,15.20
2015,06,20,10,57,15.20
2015,06,20,10,58,15.10
2015,06,20,10,59,15.10
2015,06,20,11,00,15.10
2015,06,20,11,01,15.00
2015,06,20,11,02,15.10
2015,06,20,11,03,15.10
2015,06,20,11,04,15.10
2015,06,20,11,05,15.10
2015,06,20,11,06,15.10
2015,06,20,11,07,15.10
2015,06,20,11,08,15.10
2015,06,20,11,09,15.10
2015,06,20,11,10,15.10
2015,06,20,11,11,15.10
2015,06,20,11,12,15.10
2015,06,20,11,13,15.20
2015,06,20,11,14,15.30
2015,06,20,11,15,15.30
2015,06,20,11,16,15.30
2015,06,20,11,17,15.30
2015,06,20,11,18,15.30
2015,06,20,11,19,15.40
2015,06,20,11,20,15.30
2015,06,20,11,21,15.30
2015,06,20,11,22,15.30
2015,06,20,11,23,15.30
2015,06,20,11,24,15.30
2015,06,20,11,25,15.30
2015,06,20,11,26,15.30
2015,06,20,11,27,15.30
2015,06,20,11,28,15.30
2015,06,20,11,29,15.30
2015,06,20,11,30,15.30
2015,06,20,11,31,15.30
2015,06,20,11,32,15.30
2015,06,20,11,33,15.30
2015,06,20,11,34,15.30
2015,06,20,11,35,15.30
2015,06,20,11,36,15.30
2015,06,20,11,37,15.30
2015,06,20,11,38,15.30
2015,06,20,11,39,15.40
2015,06,20,11,40,15.40
2015,06,20,11,41,15.40
2015,06,20,11,42,15.40
2015,06,20,11,43,15.40
2015,06,20,11,44,15.40
2015,06,20,11,45,15.40
2015,06,20,11,46,15.40
2015,06,20,11,47,15.40
2015,06,20,11,48,15.40
2015,06,20,11,49,15.40
2015,06,20,11,50,15.40
2015,06,20,11,51,15.30
2015,06,20,11,52,15.30
2015,06,20,11,53,15.30
2015,06,20,11,54,15.30
2015,06,20,11,55,15.30
2015,06,20,11,56,15.30
2015,06,20,11,57,15.20
2015,06,20,11,58,15.20
2015,06,20,11,59,15.20
2015,06,20,12,00,15.30
2015,06,20,12,01,15.30
2015,06,20,12,02,15.30
2015,06,20,12,03,15.40
2015,06,20,12,04,15.40
2015,06,20,12,05,15.40
2015,06,20,12,06,15.40
2015,06,20,12,07,15.40
2015,06,20,12,08,15.50
2015,06,20,12,09,15.50
2015,06,20,12,10,15.50
2015,06,20,12,11,15.60
2015,06,20,12,12,15.70
2015,06,20,12,13,15.70
2015,06,20,12,14,15.80
2015,06,20,12,15,15.80
2015,06,20,12,16,15.90
2015,06,20,12,17,15.90
2015,06,20,12,18,15.90
2015,06,20,12,19,16.00
2015,06,20,12,20,16.00
2015,06,20,12,21,16.10
2015,06,20,12,22,16.10
2015,06,20,12,23,16.20
2015,06,20,12,24,16.20
2015,06,20,12,25,16.20
2015,06,20,12,26,16.20
2015,06,20,12,27,16.20
2015,06,20,12,28,16.20
2015,06,20,12,29,16.20
2015,06,20,12,30,16.10
2015,06,20,12,31,16.10
2015,06,20,12,32,16.00
2015,06,20,12,33,15.90
2015,06,20,12,34,15.90
2015,06,20,12,35,15.90
2015,06,20,12,36,15.90
2015,06,20,12,37,16.00
2015,06,20,12,38,16.10
2015,06,20,12,39,16.20
2015,06,20,12,40,16.30
2015,06,20,12,41,16.40
2015,06,20,12,42,16.50
2015,06,20,12,43,16.50
2015,06,20,12,44,16.60
2015,06,20,12,45,16.60
2015,06,20,12,46,16.60
2015,06,20,12,47,16.70
2015,06,20,12,48,16.60
2015,06,20,12,49,16.60
2015,06,20,12,50,16.60
2015,06,20,12,51,16.70
2015,06,20,12,52,16.80
2015,06,20,12,53,16.80
2015,06,20,12,54,16.90
2015,06,20,12,55,17.10
2015,06,20,12,56,17.10
2015,06,20,12,57,17.20
2015,06,20,12,58,17.30
2015,06,20,12,59,17.40
2015,06,20,13,00,17.50
2015,06,20,13,01,17.60
2015,06,20,13,02,17.60
2015,06,20,13,03,17.60
2015,06,20,13,04,17.60
2015,06,20,13,05,17.80
2015,06,20,13,06,17.80
2015,06,20,13,07,17.80
2015,06,20,13,08,17.80
2015,06,20,13,09,17.70
2015,06,20,13,10,17.80
2015,06,20,13,11,17.80
2015,06,20,13,12,17.80
2015,06,20,13,13,17.80
2015,06,20,13,14,17.80
2015,06,20,13,15,17.70
2015,06,20,13,16,17.60
2015,06,20,13,17,17.50
2015,06,20,13,18,17.40
2015,06,20,13,19,17.40
2015,06,20,13,20,17.40
2015,06,20,13,21,17.40
2015,06,20,13,22,17.40
2015,06,20,13,23,17.40
2015,06,20,13,24,17.50
2015,06,20,13,25,17.60
2015,06,20,13,26,17.70
2015,06,20,13,27,17.80
2015,06,20,13,28,17.80
2015,06,20,13,29,17.80
2015,06,20,13,30,17.80
2015,06,20,13,31,17.80
2015,06,20,13,32,17.80
2015,06,20,13,33,17.90
2015,06,20,13,34,17.90
2015,06,20,13,35,18.00
2015,06,20,13,36,18.00
2015,06,20,13,37,17.90
2015,06,20,13,38,17.90
2015,06,20,13,39,17.90
2015,06,20,13,40,17.90
2015,06,20,13,41,17.90
2015,06,20,13,42,17.90
2015,06,20,13,43,17.90
2015,06,20,13,44,18.00
2015,06,20,13,45,18.10
2015,06,20,13,46,18.20
2015,06,20,13,47,18.30
2015,06,20,13,48,18.30
2015,06,20,13,49,18.30
2015,06,20,13,50,18.30
2015,06,20,13,51,18.40
2015,06,20,13,52,18.50
2015,06,20,13,53,18.50
2015,06,20,13,54,18.60
2015,06,20,13,55,18.60
2015,06,20,13,56,18.70
2015,06,20,13,57,18.80
2015,06,20,13,58,18.80
2015,06,20,13,59,18.70
2015,06,20,14,00,18.50
2015,06,20,14,01,18.40
2015,06,20,14,02,18.30
2015,06,20,14,03,18.30
2015,06,20,14,04,18.30
2015,06,20,14,05,18.40
2015,06,20,14,06,18.50
2015,06,20,14,07,18.50
2015,06,20,14,08,18.50
2015,06,20,14,09,18.50
2015,06,20,14,10,18.50
2015,06,20,14,11,18.50
2015,06,20,14,12,18.60
2015,06,20,14,13,18.70
2015,06,20,14,14,18.70
2015,06,20,14,15,18.70
2015,06,20,14,16,18.70
2015,06,20,14,17,18.60
2015,06,20,14,18,18.50
2015,06,20,14,19,18.40
2015,06,20,14,20,18.40
2015,06,20,14,21,18.30
2015,06,20,14,22,18.30
2015,06,20,14,23,18.20
2015,06,20,14,24,18.10
2015,06,20,14,25,18.10
2015,06,20,14,26,18.10
2015,06,20,14,27,18.10
2015,06,20,14,28,18.10
2015,06,20,14,29,18.00
2015,06,20,14,30,17.90
2015,06,20,14,31,17.90
2015,06,20,14,32,18.00
2015,06,20,14,33,18.10
2015,06,20,14,34,18.20
2015,06,20,14,35,18.30
2015,06,20,14,36,18.50
2015,06,20,14,37,18.60
2015,06,20,14,38,18.60
2015,06,20,14,39,18.70
2015,06,20,14,40,18.80
2015,06,20,14,41,18.90
2015,06,20,14,42,19.00
2015,06,20,14,43,19.00
2015,06,20,14,44,18.90
2015,06,20,14,45,18.90
2015,06,20,14,46,18.90
2015,06,20,14,47,18.80
2015,06,20,14,48,18.80
2015,06,20,14,49,18.70
2015,06,20,14,50,18.80
2015,06,20,14,51,18.80
2015,06,20,14,52,18.90
2015,06,20,14,53,18.90
2015,06,20,14,54,19.00
2015,06,20,14,55,19.00
2015,06,20,14,56,19.10
2015,06,20,14,57,19.00
2015,06,20,14,58,19.00
2015,06,20,14,59,19.10
2015,06,20,15,00,19.10
2015,06,20,15,01,19.20
2015,06,20,15,02,19.30
2015,06,20,15,03,19.30
2015,06,20,15,04,19.40
2015,06,20,15,05,19.40
2015,06,20,15,06,19.40
2015,06,20,15,07,19.40
2015,06,20,15,08,19.40
2015,06,20,15,09,19.40
2015,06,20,15,10,19.20
2015,06,20,15,11,19.10
2015,06,20,15,12,18.90
2015,06,20,15,13,19.00
2015,06,20,15,14,18.90
2015,06,20,15,15,18.80
2015,06,20,15,16,18.80
2015,06,20,15,17,18.80
2015,06,20,15,18,18.90
2015,06,20,15,19,18.90
2015,06,20,15,20,18.90
2015,06,20,15,21,18.90
2015,06,20,15,22,18.90
2015,06,20,15,23,19.00
2015,06,20,15,24,19.10
2015,06,20,15,25,19.10
2015,06,20,15,26,19.00
2015,06,20,15,27,18.90
2015,06,20,15,28,18.90
2015,06,20,15,29,18.90
2015,06,20,15,30,18.90
2015,06,20,15,31,19.00
2015,06,20,15,32,19.00
2015,06,20,15,33,19.00
2015,06,20,15,34,19.00
2015,06,20,15,35,18.90
2015,06,20,15,36,18.90
2015,06,20,15,37,18.90
2015,06,20,15,38,18.90
2015,06,20,15,39,18.80
2015,06,20,15,40,18.90
2015,06,20,15,41,18.90
2015,06,20,15,42,19.00
2015,06,20,15,43,19.10
2015,06,20,15,44,19.20
2015,06,20,15,45,19.20
2015,06,20,15,46,19.20
2015,06,20,15,47,19.20
2015,06,20,15,48,19.30
2015,06,20,15,49,19.30
2015,06,20,15,50,19.30
2015,06,20,15,51,19.30
2015,06,20,15,52,19.20
2015,06,20,15,53,19.20
2015,06,20,15,54,19.30
2015,06,20,15,55,19.30
2015,06,20,15,56,19.30
2015,06,20,15,57,19.40
2015,06,20,15,58,19.40
2015,06,20,15,59,19.40
2015,06,20,16,00,19.50
2015,06,20,16,01,19.60
2015,06,20,16,02,19.60
2015,06,20,16,03,19.60
2015,06,20,16,04,19.60
2015,06,20,16,05,19.60
2015,06,20,16,06,19.60
2015,06,20,16,07,19.70
2015,06,20,16,08,19.70
2015,06,20,16,09,19.70
2015,06,20,16,10,19.70
2015,06,20,16,11,19.70
2015,06,20,16,12,19.80
2015,06,20,16,13,19.80
2015,06,20,16,14,19.70
2015,06,20,16,15,19.70
2015,06,20,16,16,19.80
2015,06,20,16,17,19.90
2015,06,20,16,18,20.00
2015,06,20,16,19,20.10
2015,06,20,16,20,20.20
2015,06,20,16,21,20.20
2015,06,20,16,22,20.20
2015,06,20,16,23,20.20
2015,06,20,16,24,20.20
2015,06,20,16,25,20.20
2015,06,20,16,26,20.30
2015,06,20,16,27,20.30
2015,06,20,16,28,20.30
2015,06,20,16,29,20.30
2015,06,20,16,30,20.30
2015,06,20,16,31,20.40
2015,06,20,16,32,20.40
2015,06,20,16,33,20.40
2015,06,20,16,34,20.40
2015,06,20,16,35,20.40
2015,06,20,16,36,20.30
2015,06,20,16,37,20.30
2015,06,20,16,38,20.20
2015,06,20,16,39,20.20
2015,06,20,16,40,20.20
2015,06,20,16,41,20.20
2015,06,20,16,42,20.20
2015,06,20,16,43,20.20
2015,06,20,16,44,20.20
2015,06,20,16,45,20.20
2015,06,20,16,46,20.30
2015,06,20,16,47,20.20
2015,06,20,16,48,20.10
2015,06,20,16,49,20.10
2015,06,20,16,50,20.10
2015,06,20,16,51,20.10
2015,06,20,16,52,20.10
2015,06,20,16,53,20.10
2015,06,20,16,54,20.20
2015,06,20,16,55,20.20
2015,06,20,16,56,20.30
2015,06,20,16,57,20.30
2015,06,20,16,58,20.40
2015,06,20,16,59,20.40
2015,06,20,17,00,20.40
2015,06,20,17,01,20.40
2015,06,20,17,02,20.40
2015,06,20,17,03,20.40
2015,06,20,17,04,20.50
2015,06,20,17,05,20.50
2015,06,20,17,06,20.60
2015,06,20,17,07,20.60
2015,06,20,17,08,20.60
2015,06,20,17,09,20.60
2015,06,20,17,10,20.60
2015,06,20,17,11,20.70
2015,06,20,17,12,20.70
2015,06,20,17,13,20.80
2015,06,20,17,14,20.90
2015,06,20,17,15,21.00
2015,06,20,17,16,21.00
2015,06,20,17,17,21.10
2015,06,20,17,18,21.10
2015,06,20,17,19,21.00